Time,TemperatureF,DewpointF,PressureIn,WindDirection,WindDirectionDegrees,WindSpeedMPH,WindSpeedGustMPH,Humidity,HourlyPrecipIn,Conditions,Clouds,dailyrainin,SoftwareType,DateUTC
2013-01-11 08:03:00,49.0,49.0,28.94,SSE,158,9.0,9.0,100,0.00,,,-99.99,,2013-01-11 14:03:00,
2013-01-11 08:12:00,49.0,49.0,28.91,South,177,8.0,11.0,100,0.00,,,-99.99,,2013-01-11 14:12:00,
2013-01-11 08:33:00,49.0,49.0,28.94,SE,146,13.0,15.0,100,0.00,,,-99.99,,2013-01-11 14:33:00,
2013-01-11 08:42:00,49.0,49.0,28.94,SE,140,12.0,13.0,100,0.00,,,-99.99,,2013-01-11 14:42:00,
2013-01-11 08:53:00,49.0,49.0,28.94,SE,140,12.0,13.0,100,0.00,,,-99.99,,2013-01-11 14:53:00,
2013-01-11 09:03:00,49.0,49.0,28.91,South,183,8.0,13.0,100,0.00,,,-99.99,,2013-01-11 15:03:00,
2013-01-11 09:12:00,50.0,50.0,28.94,SSE,153,8.0,15.0,100,0.00,,,-99.99,,2013-01-11 15:12:00,
2013-01-11 09:23:00,50.0,50.0,28.94,SSE,153,8.0,15.0,100,0.00,,,-99.99,,2013-01-11 15:23:00,
2013-01-11 09:32:00,50.0,50.0,28.94,SSE,164,8.0,13.0,100,0.00,,,-99.99,,2013-01-11 15:32:00,
2013-01-11 09:42:00,50.0,50.0,28.94,SSE,164,8.0,13.0,100,0.00,,,-99.99,,2013-01-11 15:42:00,
2013-01-11 09:52:00,52.0,44.0,28.94,South,189,15.0,19.0,73,0.00,,,-99.99,,2013-01-11 15:52:00,
2013-01-11 10:02:00,53.0,45.0,28.94,South,178,11.0,18.0,73,0.00,,,-99.99,,2013-01-11 16:02:00,
2013-01-11 10:12:00,53.0,45.0,28.94,South,181,13.0,17.0,73,0.00,,,-99.99,,2013-01-11 16:12:00,
2013-01-11 10:22:00,53.0,45.0,28.94,South,181,13.0,17.0,73,0.00,,,-99.99,,2013-01-11 16:22:00,
2013-01-11 10:32:00,53.0,45.0,28.94,South,184,11.0,16.0,73,0.00,,,-99.99,,2013-01-11 16:32:00,
2013-01-11 10:42:00,53.0,45.0,28.91,South,178,13.0,19.0,73,0.00,,,-99.99,,2013-01-11 16:42:00,
2013-01-11 10:53:00,53.0,45.0,28.91,South,178,13.0,19.0,73,0.00,,,-99.99,,2013-01-11 16:53:00,
2013-01-11 11:03:00,54.0,43.0,28.94,South,173,9.0,15.0,67,0.00,,,-99.99,,2013-01-11 17:03:00,
2013-01-11 11:12:00,54.0,43.0,28.91,South,183,13.0,16.0,67,0.00,,,-99.99,,2013-01-11 17:12:00,
2013-01-11 11:22:00,54.0,43.0,28.91,South,183,13.0,16.0,67,0.00,,,-99.99,,2013-01-11 17:22:00,
2013-01-11 11:33:00,55.0,44.0,28.88,SSE,168,11.0,14.0,67,0.00,,,-99.99,,2013-01-11 17:33:00,
2013-01-11 11:43:00,55.0,44.0,28.88,SSE,168,11.0,14.0,67,0.00,,,-99.99,,2013-01-11 17:43:00,
2013-01-11 11:53:00,56.0,45.0,28.91,South,188,13.0,15.0,67,0.00,,,-99.99,,2013-01-11 17:53:00,
2013-01-11 12:03:00,57.0,46.0,28.88,South,176,9.0,15.0,67,0.00,,,-99.99,,2013-01-11 18:03:00,
2013-01-11 12:12:00,57.0,46.0,28.88,South,176,9.0,15.0,67,0.00,,,-99.99,,2013-01-11 18:12:00,
2013-01-11 12:23:00,56.0,45.0,28.88,South,177,12.0,20.0,67,0.00,,,-99.99,,2013-01-11 18:23:00,
2013-01-11 12:32:00,56.0,45.0,28.88,SSW,193,13.0,15.0,67,0.00,,,-99.99,,2013-01-11 18:32:00,
2013-01-11 12:43:00,56.0,45.0,28.88,SSW,193,13.0,15.0,67,0.00,,,-99.99,,2013-01-11 18:43:00,
2013-01-11 12:53:00,58.0,45.0,28.88,South,186,11.0,15.0,61,0.00,,,-99.99,,2013-01-11 18:53:00,
2013-01-11 13:02:00,58.0,45.0,28.88,South,182,12.0,16.0,61,0.00,,,-99.99,,2013-01-11 19:02:00,
2013-01-11 13:12:00,58.0,45.0,28.88,South,182,12.0,16.0,61,0.00,,,-99.99,,2013-01-11 19:12:00,
2013-01-11 13:22:00,59.0,46.0,28.88,South,189,8.0,17.0,61,0.00,,,-99.99,,2013-01-11 19:22:00,
2013-01-11 13:32:00,61.0,47.0,28.88,South,182,11.0,15.0,61,0.00,,,-99.99,,2013-01-11 19:32:00,
2013-01-11 13:43:00,61.0,47.0,28.88,South,182,11.0,15.0,61,0.00,,,-99.99,,2013-01-11 19:43:00,
2013-01-11 13:53:00,60.0,47.0,28.88,South,173,15.0,15.0,61,0.00,,,-99.99,,2013-01-11 19:53:00,
2013-01-11 14:03:00,61.0,47.0,28.85,SSW,197,11.0,13.0,61,0.00,,,-99.99,,2013-01-11 20:03:00,
2013-01-11 14:12:00,61.0,47.0,28.85,SSW,197,11.0,13.0,61,0.00,,,-99.99,,2013-01-11 20:12:00,
2013-01-11 14:22:00,60.0,47.0,28.85,SSE,157,11.0,13.0,61,0.00,,,-99.99,,2013-01-11 20:22:00,
2013-01-11 14:33:00,60.0,47.0,28.85,South,189,10.0,15.0,61,0.00,,,-99.99,,2013-01-11 20:33:00,
2013-01-11 14:43:00,60.0,47.0,28.85,South,189,10.0,15.0,61,0.00,,,-99.99,,2013-01-11 20:43:00,
2013-01-11 14:53:00,60.0,47.0,28.85,South,177,8.0,13.0,61,0.00,,,-99.99,,2013-01-11 20:53:00,
2013-01-11 15:03:00,60.0,47.0,28.85,South,175,9.0,15.0,61,0.00,,,-99.99,,2013-01-11 21:03:00,
2013-01-11 15:12:00,60.0,47.0,28.85,South,172,10.0,11.0,61,0.00,,,-99.99,,2013-01-11 21:12:00,
2013-01-11 15:23:00,60.0,47.0,28.85,South,172,10.0,11.0,61,0.00,,,-99.99,,2013-01-11 21:23:00,
2013-01-11 15:32:00,60.0,47.0,28.82,South,186,4.0,12.0,61,0.00,,,-99.99,,2013-01-11 21:32:00,
2013-01-11 15:42:00,60.0,47.0,28.82,South,186,4.0,12.0,61,0.00,,,-99.99,,2013-01-11 21:42:00,
2013-01-11 15:52:00,60.0,47.0,28.85,South,177,11.0,15.0,61,0.00,,,-99.99,,2013-01-11 21:52:00,
2013-01-11 16:02:00,60.0,47.0,28.85,SSE,162,9.0,11.0,61,0.00,,,-99.99,,2013-01-11 22:02:00,
2013-01-11 16:12:00,61.0,47.0,28.85,SSE,164,12.0,15.0,61,0.00,,,-99.99,,2013-01-11 22:12:00,
2013-01-11 16:22:00,61.0,47.0,28.85,SSE,164,12.0,15.0,61,0.00,,,-99.99,,2013-01-11 22:22:00,
2013-01-11 16:33:00,61.0,47.0,28.85,South,182,13.0,14.0,61,0.00,,,-99.99,,2013-01-11 22:33:00,
2013-01-11 16:42:00,61.0,47.0,28.85,South,182,13.0,14.0,61,0.00,,,-99.99,,2013-01-11 22:42:00,
2013-01-11 16:52:00,61.0,47.0,28.88,South,169,10.0,15.0,61,0.00,,,-99.99,,2013-01-11 22:52:00,
2013-01-11 17:02:00,61.0,47.0,28.88,South,179,11.0,16.0,61,0.00,,,-99.99,,2013-01-11 23:02:00,
2013-01-11 17:12:00,60.0,47.0,28.88,SSE,164,8.0,11.0,61,0.00,,,-99.99,,2013-01-11 23:12:00,
2013-01-11 17:22:00,60.0,47.0,28.88,SSE,164,8.0,11.0,61,0.00,,,-99.99,,2013-01-11 23:22:00,
2013-01-11 17:32:00,60.0,47.0,28.88,SSW,194,11.0,13.0,61,0.00,,,-99.99,,2013-01-11 23:32:00,
2013-01-11 17:42:00,60.0,47.0,28.88,SSW,194,11.0,13.0,61,0.00,,,-99.99,,2013-01-11 23:42:00,
2013-01-11 17:53:00,60.0,47.0,28.88,SSE,153,7.0,11.0,61,0.00,,,-99.99,,2013-01-11 23:53:00,
2013-01-11 18:02:00,60.0,47.0,28.91,South,183,13.0,13.0,61,0.00,,,-99.99,,2013-01-12 00:02:00,
2013-01-11 18:12:00,60.0,47.0,28.91,South,180,11.0,15.0,61,0.00,,,-99.99,,2013-01-12 00:12:00,
2013-01-11 18:22:00,60.0,47.0,28.91,South,180,11.0,15.0,61,0.00,,,-99.99,,2013-01-12 00:22:00,
2013-01-11 18:32:00,59.0,46.0,28.91,SSE,149,13.0,13.0,61,0.00,,,-99.99,,2013-01-12 00:32:00,
2013-01-11 18:42:00,59.0,46.0,28.91,SSE,149,13.0,13.0,61,0.00,,,-99.99,,2013-01-12 00:42:00,
2013-01-11 18:52:00,59.0,46.0,28.91,SSE,162,8.0,11.0,61,0.00,,,-99.99,,2013-01-12 00:52:00,
2013-01-11 19:02:00,59.0,46.0,28.91,South,183,11.0,13.0,61,0.00,,,-99.99,,2013-01-12 01:02:00,
2013-01-11 19:12:00,59.0,46.0,28.91,South,183,11.0,13.0,61,0.00,,,-99.99,,2013-01-12 01:12:00,
2013-01-11 19:22:00,59.0,46.0,28.91,South,171,10.0,11.0,61,0.00,,,-99.99,,2013-01-12 01:22:00,
2013-01-11 19:32:00,60.0,47.0,28.91,South,184,10.0,12.0,61,0.00,,,-99.99,,2013-01-12 01:32:00,
2013-01-11 19:42:00,60.0,47.0,28.91,South,184,10.0,12.0,61,0.00,,,-99.99,,2013-01-12 01:42:00,
2013-01-11 19:52:00,59.0,46.0,28.91,South,182,11.0,13.0,61,0.00,,,-99.99,,2013-01-12 01:52:00,
2013-01-11 20:02:00,59.0,46.0,28.91,South,170,13.0,13.0,61,0.00,,,-99.99,,2013-01-12 02:02:00,
2013-01-11 20:12:00,59.0,46.0,28.91,South,170,13.0,13.0,61,0.00,,,-99.99,,2013-01-12 02:12:00,
2013-01-11 20:22:00,59.0,46.0,28.91,SSE,162,12.0,12.0,61,0.00,,,-99.99,,2013-01-12 02:22:00,
2013-01-11 20:32:00,59.0,46.0,28.91,South,181,8.0,11.0,61,0.00,,,-99.99,,2013-01-12 02:32:00,
2013-01-11 20:42:00,59.0,46.0,28.91,South,181,8.0,11.0,61,0.00,,,-99.99,,2013-01-12 02:42:00,
2013-01-11 20:53:00,59.0,46.0,28.91,SSE,162,8.0,11.0,61,0.00,,,-99.99,,2013-01-12 02:53:00,
2013-01-11 21:02:00,59.0,46.0,28.88,South,190,13.0,15.0,61,0.00,,,-99.99,,2013-01-12 03:02:00,
2013-01-11 21:12:00,59.0,46.0,28.88,South,190,13.0,15.0,61,0.00,,,-99.99,,2013-01-12 03:12:00,
2013-01-11 21:22:00,59.0,46.0,28.88,South,188,11.0,16.0,61,0.00,,,-99.99,,2013-01-12 03:22:00,
2013-01-11 21:33:00,59.0,46.0,28.91,SSE,166,17.0,17.0,61,0.00,,,-99.99,,2013-01-12 03:33:00,
2013-01-11 21:43:00,59.0,46.0,28.91,SSE,166,17.0,17.0,61,0.00,,,-99.99,,2013-01-12 03:43:00,
2013-01-11 21:52:00,59.0,46.0,28.91,SSE,156,12.0,18.0,61,0.00,,,-99.99,,2013-01-12 03:52:00,
2013-01-11 22:02:00,58.0,45.0,28.91,South,177,12.0,15.0,61,0.00,,,-99.99,,2013-01-12 04:02:00,
2013-01-11 22:12:00,58.0,45.0,28.91,SSE,147,11.0,15.0,61,0.00,,,-99.99,,2013-01-12 04:12:00,
2013-01-11 22:22:00,58.0,45.0,28.91,SSE,147,11.0,15.0,61,0.00,,,-99.99,,2013-01-12 04:22:00,
2013-01-11 22:32:00,58.0,45.0,28.91,SSE,163,11.0,13.0,61,0.00,,,-99.99,,2013-01-12 04:32:00,
2013-01-11 22:42:00,58.0,45.0,28.91,SSE,163,11.0,13.0,61,0.00,,,-99.99,,2013-01-12 04:42:00,
2013-01-11 22:52:00,57.0,46.0,28.91,South,174,11.0,11.0,67,0.00,,,-99.99,,2013-01-12 04:52:00,
2013-01-11 23:03:00,57.0,44.0,28.91,South,189,10.0,11.0,61,0.00,,,-99.99,,2013-01-12 05:03:00,
2013-01-11 23:12:00,57.0,44.0,28.91,South,189,10.0,11.0,61,0.00,,,-99.99,,2013-01-12 05:12:00,
2013-01-11 23:22:00,57.0,46.0,28.91,South,183,8.0,11.0,67,0.00,,,-99.99,,2013-01-12 05:22:00,
2013-01-11 23:32:00,57.0,46.0,28.91,SSW,197,7.0,9.0,67,0.00,,,-99.99,,2013-01-12 05:32:00,
2013-01-11 23:42:00,57.0,46.0,28.91,SSW,197,7.0,9.0,67,0.00,,,-99.99,,2013-01-12 05:42:00,
2013-01-11 23:52:00,57.0,46.0,28.94,SSW,195,8.0,8.0,67,0.00,,,-99.99,,2013-01-12 05:52:00,